| time (UTC) | temp F | wind direction | speed MPH | gust MPH | rain 1hr in | rain 24hr in | rain mn in | humidity % | barometer mb |
| 20260503211506 | 65 | 338 | 15.0 | 26.0 | 0.00 | 0.00 | 0.00 | 25 | 1001.7 |
| 20260503210009 | 65 | 340 | 17.0 | 27.0 | 0.00 | 0.00 | 0.00 | 25 | 1001.8 |
| 20260503204512 | 64 | 359 | 12.0 | 25.0 | 0.00 | 0.00 | 0.00 | 25 | 1002.3 |
| 20260503203020 | 64 | 360 | 15.0 | 30.0 | 0.00 | 0.00 | 0.00 | 24 | 998.0 |
| 20260503201522 | 64 | 359 | 10.0 | 23.0 | 0.00 | 0.00 | 0.00 | 25 | 1002.5 |
| 20260503200005 | 64 | 348 | 15.0 | 23.0 | 0.00 | 0.00 | 0.00 | 24 | 1002.6 |
| 20260503194527 | 63 | 344 | 17.0 | 21.0 | 0.00 | 0.00 | 0.00 | 24 | 1002.6 |
| 20260503193026 | 64 | 349 | 11.0 | 21.0 | 0.00 | 0.00 | 0.00 | 22 | 1003.0 |
| 20260503191527 | 63 | 334 | 10.0 | 22.0 | 0.00 | 0.00 | 0.00 | 20 | 1003.0 |
| 20260503190024 | 63 | 359 | 5.0 | 20.0 | 0.00 | 0.00 | 0.00 | 20 | 1003.1 |
| 20260503184515 | 63 | 341 | 10.0 | 32.0 | 0.00 | 0.00 | 0.00 | 19 | 1003.4 |
| 20260503183017 | 63 | 340 | 13.0 | 23.0 | 0.00 | 0.00 | 0.00 | 19 | 1003.5 |
| 20260503181518 | 62 | 344 | 6.0 | 27.0 | 0.00 | 0.00 | 0.00 | 19 | 1003.7 |
| 20260503180026 | 61 | 4 | 15.0 | 26.0 | 0.00 | 0.00 | 0.00 | 20 | 1001.7 |
| 20260503174526 | 61 | 1 | 14.0 | 29.0 | 0.00 | 0.00 | 0.00 | 18 | 999.7 |
| 20260503173016 | 62 | 335 | 12.0 | 22.0 | 0.00 | 0.00 | 0.00 | 18 | 1004.0 |
| 20260503171526 | 61 | 336 | 9.0 | 25.0 | 0.00 | 0.00 | 0.00 | 23 | 1004.0 |
| 20260503081531 | 0 | 0.0 | 0.0 | 0.00 | 0.00 | 0.00 | 1004.3 | ||
| 20260503071532 | 42 | 3.0 | 4.0 | 0.00 | 0.00 | 0.00 | 68 | 1005.2 | |
| 20260503054531 | 41 | 179 | 3.0 | 5.0 | 0.00 | 0.00 | 0.00 | 65 | 1006.2 |
| 20260503053026 | 40 | 179 | 3.0 | 6.0 | 0.00 | 0.00 | 0.00 | 68 | 1006.6 |
| 20260503051515 | 40 | 185 | 4.0 | 5.0 | 0.00 | 0.00 | 0.00 | 70 | 1006.8 |
| 20260503050030 | 40 | 185 | 6.0 | 7.0 | 0.00 | 0.00 | 0.00 | 70 | 1006.7 |
| 20260503044525 | 40 | 212 | 3.0 | 5.0 | 0.00 | 0.00 | 0.00 | 72 | 1006.9 |
| 20260503043024 | 40 | 212 | 3.0 | 5.0 | 0.00 | 0.00 | 0.00 | 74 | 1006.8 |
| 20260503041535 | 40 | 212 | 3.0 | 5.0 | 0.00 | 0.00 | 0.00 | 75 | 1007.1 |
| 20260503040028 | 39 | 212 | 1.0 | 2.0 | 0.00 | 0.00 | 0.00 | 77 | 1007.5 |
| 20260503034520 | 39 | 212 | 2.0 | 3.0 | 0.00 | 0.00 | 0.00 | 76 | 1007.3 |
| 20260503033022 | 39 | 207 | 0.0 | 2.0 | 0.00 | 0.00 | 0.00 | 74 | 1007.5 |
| 20260503031525 | 39 | 195 | 0.0 | 2.0 | 0.00 | 0.00 | 0.00 | 75 | 1007.7 |
| 20260503030028 | 39 | 185 | 0.0 | 2.0 | 0.00 | 0.00 | 0.00 | 75 | 1007.7 |
| 20260503024518 | 39 | 181 | 1.0 | 5.0 | 0.00 | 0.00 | 0.00 | 74 | 1007.8 |
| 20260503023021 | 41 | 157 | 5.0 | 13.0 | 0.00 | 0.00 | 0.00 | 70 | 1007.6 |
| 20260503021527 | 40 | 127 | 11.0 | 13.0 | 0.00 | 0.00 | 0.00 | 68 | 1002.8 |
| 20260503020027 | 41 | 146 | 6.0 | 8.0 | 0.00 | 0.00 | 0.00 | 70 | 1007.5 |
| 20260503014527 | 42 | 140 | 5.0 | 13.0 | 0.00 | 0.00 | 0.00 | 68 | 1007.5 |
| 20260503013023 | 41 | 142 | 4.0 | 9.0 | 0.00 | 0.00 | 0.00 | 68 | 1007.4 |
| 20260503011524 | 40 | 132 | 5.0 | 9.0 | 0.00 | 0.00 | 0.00 | 73 | 1007.3 |
| 20260503010027 | 39 | 129 | 8.0 | 13.0 | 0.00 | 0.00 | 0.00 | 74 | 1007.0 |
| 20260503004503 | 40 | 136 | 14.0 | 15.0 | 0.00 | 0.00 | 0.00 | 71 | 1006.9 |
| 20260503003003 | 41 | 110 | 9.0 | 17.0 | 0.00 | 0.00 | 0.00 | 69 | 1007.1 |
| 20260503001506 | 42 | 119 | 17.0 | 20.0 | 0.00 | 0.00 | 0.00 | 63 | 1007.0 |
| 20260503000004 | 62 | 287 | 6.0 | 11.0 | 0.00 | 0.00 | 0.00 | 35 | 1007.0 |
| 20260502234504 | 62 | 287 | 11.0 | 16.0 | 0.00 | 0.00 | 0.00 | 36 | 1007.1 |
| 20260502233003 | 62 | 287 | 13.0 | 15.0 | 0.00 | 0.00 | 0.00 | 36 | 1006.9 |
| 20260502231503 | 62 | 282 | 12.0 | 19.0 | 0.00 | 0.00 | 0.00 | 34 | 1007.5 |
| 20260502230009 | 63 | 287 | 15.0 | 23.0 | 0.00 | 0.00 | 0.00 | 34 | 1007.6 |
| 20260502221504 | 63 | 330 | 17.0 | 21.0 | 0.00 | 0.00 | 0.00 | 32 | 1008.0 |
| 20260502220005 | 63 | 288 | 15.0 | 23.0 | 0.00 | 0.00 | 0.00 | 31 | 1007.3 |
| 20260502214505 | 55 | 348 | 15.0 | 21.0 | 0.00 | 0.00 | 0.00 | 43 | 1008.3 |